Regional Weather Roundup
Issued by NWS

Home | Current Version | Previous Version | Graphics & Text | Print | Product List | Glossary On
Versions: 1 2 3 4 5 6 7 8 9 10 11 12 13 14 15 16 17 18 19 20 21 22 23 24 25 26 27 28 29 30 31 32 33 34 35 36 37 38 39 40 41 42 43 44 45 46 47 48 49 50
050
ASUS43 KMKX 272200
RWRWI

WISCONSIN REGIONAL WEATHER ROUNDUP
NATIONAL WEATHER SERVICE MILWAUKEE/SULLIVAN WI
500 PM CDT WED JUL 27 2016

NOTE: "FAIR" INDICATES FEW OR NO CLOUDS BELOW 12,000 FEET WITH NO
SIGNIFICANT WEATHER AND/OR OBSTRUCTIONS TO VISIBILITY.

WIZ001-002-006>008-014>016-023>028-272300-
NORTHWEST WISCONSIN

CITY           SKY/WX    TMP DP  RH WIND       PRES   REMARKS
SUPERIOR ARPT  CLOUDY    61  60  96 NE14G21   30.03R
ASHLAND        LGT RAIN  63  62  97 NE6       30.02F
HAYWARD        HVY RAIN  65  63  93 NE8       30.01S FOG
SIREN          NOT AVBL
CUMBERLAND     TSTM      64  63  94 NE5       30.00R
RICE LAKE      TSTM      65  63  91 CALM      29.98F
CHETEK         RAIN      68  67  95 N10       29.97R
LADYSMITH      TSTM      72  68  89 N7        29.98S
EAU CLAIRE     CLOUDY    80  69  69 SW13      29.91S HX  83
MENOMONIE      CLOUDY    79  68  69 W6        29.93S THUNDER HX  81
NEW RICHMOND   RAIN      66  65  99 E6        29.96F
OSCEOLA        RAIN      65  65 100 CALM      29.98F
$$

WIZ003>005-009-010-017-018-272300-
NORTH CENTRAL WISCONSIN

CITY           SKY/WX    TMP DP  RH WIND       PRES   REMARKS
MANITOWISH WTR RAIN      70  70 100 E5        30.01F
ARBOR VITAE    LGT RAIN  72  69  89 E3        30.00F
WOODRUFF       LGT RAIN  72  69  89 E3        30.00F
RHINELANDER    CLOUDY    71  66  84 NE6       30.01F
EAGLE RIVER    CLOUDY    70  63  77 CALM      30.02S
LAND O LAKES   LGT RAIN  70  67  91 NE5       30.03S
PHILLIPS       DRIZZLE   68  67  96 N5        29.99S
TOMAHAWK       PTSUNNY   72  65  79 E5        29.98F
MEDFORD        CLOUDY    77  70  77 NE7       29.96F
MERRILL        PTSUNNY   77  70  77 E5        29.97F
$$

WIZ029-030-035-036-043>047-272300-
CENTRAL WISCONSIN

CITY           SKY/WX    TMP DP  RH WIND       PRES   REMARKS
WAUSAU         CLOUDY    78  68  71 E6        29.94F HX  80
MOSINEE        MOSUNNY   79  70  73 SE3       29.97  HX  81
MARSHFIELD     TSTM      68  63  84 SW16G25   29.97R
STEVENS POINT  PTSUNNY   77  66  67 SE5       29.97S
WAUPACA        CLOUDY    82  68  62 SE7       29.96F HX  85
WAUTOMA        CLOUDY    77  70  79 SE6       29.96F
WISC RAPIDS    CLOUDY    78  65  63 CALM      29.96F HX  80
CAMP DOUGLAS   NOT AVBL
$$

WIZ011>013-019>022-031-037>040-048>050-272300-
NORTHEAST WISCONSIN

CITY           SKY/WX    TMP DP  RH WIND       PRES   REMARKS
ANTIGO         CLOUDY    73  67  83 CALM      30.00F
SHAWANO        CLOUDY    80  71  72 NE6       29.96F HX  84
OCONTO         CLOUDY    75  73  91 SE3       29.97R
STURGEON BAY   CLOUDY    75  67  76 CALM      29.99R
GREEN BAY      CLOUDY    79  69  71 CALM      29.96S HX  81
MANITOWOC      NOT AVBL
APPLETON       PTSUNNY   79  63  57 VRB6      29.95F HX  80
CLINTONVILLE   MOSUNNY   79  64  61 SE5       29.96S HX  81
OSHKOSH        CLOUDY    77  66  68 S7        29.96F
$$

WIZ032>034-041-042-053>061-272300-
SOUTHWEST WISCONSIN

CITY           SKY/WX    TMP DP  RH WIND       PRES   REMARKS
LA CROSSE      MOSUNNY   85  67  54 SW9       29.91F HX  87
SPARTA         CLOUDY    82  69  65 SW5       29.94S HX  85
VIROQUA        PTSUNNY   82  66  58 S6        29.95F HX  84
BOSCOBEL       MOSUNNY   86  65  49 SW7       29.93F HX  88
PRAIRIE DU CHI MOSUNNY   82  64  54 SW5       29.93F HX  83
PLATTEVILLE    CLOUDY    82  68  62 SW6       29.96S HX  85
$$

WIZ056-057-062-063-064-067-068-272300-
SOUTH CENTRAL WISCONSIN

CITY           SKY/WX    TMP DP  RH WIND       PRES   REMARKS
REEDSBURG      SUNNY     82  70  68 NE7       29.94F HX  85
BARABOO/DELLS  MOSUNNY   80  68  66 E8        29.95F HX  82
LONE ROCK      NOT AVBL
MINERAL POINT  PTSUNNY   84  66  54 SW5       29.96F HX  86
MADISON        PTSUNNY   82  69  64 E10       29.95F HX  85
MIDDLETON      MOSUNNY   87  64  46 W5        29.96F HX  88
WATERTOWN      SUNNY     80  69  69 E9        29.96F HX  82
MONROE         PTSUNNY   82  64  54 CALM      29.96S HX  84
JANESVILLE     MOSUNNY   88  63  42 W6        29.94  HX  88
$$

WIZ051-052-058>065-066-070>072-272300-
SOUTHEAST WISCONSIN

CITY           SKY/WX    TMP DP  RH WIND       PRES   REMARKS
MILWAUKEE      PTSUNNY   77  66  68 NE12      29.97S
WAUKESHA       PTSUNNY   75  64  69 NE13      29.99S
MILWAUKEE/TIMM CLOUDY    75  64  69 NE5       29.99S
RACINE         MOSUNNY   77  68  73 NE14      29.98R
BURLINGTON     MOSUNNY   85  63  47 SW3       29.96S HX  86
KENOSHA        MOSUNNY   85  66  53 E9        29.95F HX  87
FOND DU LAC    CLOUDY    76  68  76 SE9       29.95F
SHEBOYGAN      LGT RAIN  71  67  87 W6        29.97F
WEST BEND      LGT RAIN  68  64  88 CALM      29.98F
JUNEAU         CLOUDY    73  68  86 E9        29.98F
$$

LSZ147-162-272300-
LAKE SUPERIOR

STATION/POSITION TIME  TEMP    WIND        PRES    WAVE
                       AIR SEA DIR/SP/G            HT/PER
                 (UTC) (F)     (DEG/KT/KT) (MB)    (FT/S)
W MID LAKE BUOY  2050   61 60  120/  6/  8 1017.3R   2/ 4
DEVILS ISLAND    2100   61      70/ 20/ 23 1016.2F
PORT WING        2140   65      30/  6/  7 1016.9S
SAXON HARBOR     2100   66      60/ 13/ 15 1015.9S
$$

LMZ867-665-643>646-272300-
LAKE MICHIGAN

STATION/POSITION TIME  TEMP    WIND        PRES    WAVE
                       AIR SEA DIR/SP/G            HT/PER
                 (UTC) (F)     (DEG/KT/KT) (MB)    (FT/S)
CHAMBERS ISLAND  2100   77     220/  3/  5 1013.9F
S GREEN BAY BUOY 2100   74 75  180/  8/ 10   N/A
N MID LAKE BUOY  2050   71 71  320/  4/  4 1013.6R   0
NORTHPORT PIER   2100   74     330/  6/  9 1013.9R
SISTER BAY       2121   75        CALM       N/A
ALGOMA LAKESHORE 2113          220/ 10/ 11   N/A
KEWAUNEE LAKESHO 2100   69     170/  4/  5 1014.5R
SHEBOYGAN LAKESH 2100   69      CALM  /  2 1015.0F
PORT WASHINGTON  2100   73      10/  3/  6 1015.6F
ATWATER BUOY     2100   63 61  330/  4/  6 1016.8S
MILWAUKEE LAKESH 2110   69      20/ 11/ 12   N/A
S MID LAKE BUOY  2050   78 77  140/  6/  6 1013.6F
KENOSHA   LAKESH 2100   80     130/  5/  5 1013.9F
$$

TC  - TEMPERATURE IN CELSIUS
VSB - VISIBILITY IN STATUTE MILES
WCI - WIND CHILL INDEX
HX  - HEAT INDEX





USA.gov is the U.S. government's official web portal to all federal, state and local government web resources and services.